This demonstration page uses our WeatherBlox Daily Observations layout. Learn more.

Left ArrowRight Arrow

38.88101, -77.10428

Hourly Observations for June 7, 2021

Temp ( °F °C ) Dew Point ( °F °C ) Humidity (%) Winds ( mph kmh ) Pressure ( in mb ) Visibility ( mi km ) Precip ( " mm )
12:52 am 00:52 Partly Cloudy 79 26.1 72 22.2 79 79 S 7 11 30.08 1019 10 16 N/A
1:52 am 01:52 Partly Cloudy 78 25.6 71 21.7 79 79 S 6 9 30.07 1018 10 16 N/A
2:52 am 02:52 Partly Cloudy 77 25 70 21.1 79 79 S 8 13 30.07 1018 10 16 N/A
3:52 am 03:52 Mostly Cloudy 77 25 70 21.1 79 79 S 8 13 30.07 1018 10 16 N/A
4:52 am 04:52 Mostly Cloudy 76 24.4 69 20.6 79 79 SSW 8 13 30.07 1018 10 16 N/A
5:52 am 05:52 Mostly Cloudy 76 24.4 69 20.6 79 79 S 12 19 30.09 1019 10 16 N/A
6:52 am 06:52 Mostly Cloudy 76 24.4 69 20.6 79 79 S 10 17 30.10 1019 10 16 N/A
7:52 am 07:52 Mostly Cloudy 78 25.6 70 21.1 76 76 SSW 5 7 30.11 1020 10 16 N/A
8:52 am 08:52 Mostly Cloudy 80 26.7 71 21.7 74 74 S 10 17 30.11 1020 10 16 N/A
9:52 am 09:52 Mostly Cloudy 82 27.8 71 21.7 69 69 S 12 19 30.11 1020 10 16 N/A
10:52 am 10:52 Mostly Cloudy 84 28.9 72 22.2 67 67 S 12 19 30.11 1020 10 16 N/A
11:52 am 11:52 Mostly Cloudy 86 30 72 22.2 63 63 S 10 17 30.11 1020 10 16 N/A
12:52 pm 12:52 Mostly Cloudy 88 31.1 72 22.2 59 59 S 13 20 30.10 1019 10 16 N/A
1:52 pm 13:52 Mostly Cloudy 88 31.1 73 22.8 61 61 S 13 20 30.08 1019 10 16 N/A
2:52 pm 14:52 Mostly Cloudy 90 32.2 73 22.8 58 58 S 10 17 30.06 1018 10 16 N/A
3:52 pm 15:52 Mostly Cloudy 89 31.7 73 22.8 59 59 S 13 20 30.04 1017 10 16 N/A
4:52 pm 16:52 Partly Cloudy 87 30.6 72 22.2 61 61 S 14 22 30.03 1017 10 16 N/A
5:52 pm 17:52 Partly Cloudy 88 31.1 72 22.2 59 59 S 13 20 30.03 1017 10 16 N/A
6:52 pm 18:52 Partly Cloudy 88 31.1 72 22.2 59 59 S 12 19 30.02 1017 10 16 N/A
7:52 pm 19:52 Mostly Cloudy 85 29.4 73 22.8 68 68 S 7 11 30.03 1017 10 16 N/A
8:52 pm 20:52 Mostly Cloudy 83 28.3 74 23.3 74 74 S 8 13 30.04 1017 10 16 N/A
9:52 pm 21:52 Cloudy 83 28.3 74 23.3 74 74 S 9 15 30.06 1018 10 16 N/A
10:52 pm 22:52 Mostly Cloudy 82 27.8 74 23.3 77 77 S 7 11 30.06 1018 10 16 N/A
11:52 pm 23:52 Mostly Cloudy 81 27.2 73 22.8 77 77 S 7 11 30.07 1018 10 16 N/A

Powered by AerisWeather